Location: Azul
(36.7830°S, 59.8500°W)
Time: 16:20:13
(UTC-03:00)

ISS - Pass Details

Date: 26 February 2021
Orbit: 417 x 422 km, 51.6° (Epoch: 26 February)

Event Time Altitude Azimuth Distance (km) Brightness Sun altitude
Rises 21:04:37 0° 217° (SW) 2,406 1.2 -16.7°
Reaches altitude 10° 21:08:14 10° 178° (S) 1,535 -0.6 -17.3°
Maximum altitude 21:09:10 11° 162° (SSE) 1,483 -0.9 -17.5°
Drops below altitude 10° 21:10:06 10° 146° (SE) 1,532 -1.0 -17.7°
Enters shadow 21:10:25 - 141° (SE) 1,569 -1.0 -17.7°
